Chignik, AK

12:54 PM AKST on November 21, 2017 (GMT -0900)
Chignik

Weather History for PAJC - February, 2013

Change the Weather History Date:

Saturday, February 16, 2013

  Actual Average Record
Temperature  
Mean Temperature 27 °F -  
Max Temperature 35 °F 34 °F 42 °F (2001)
Min Temperature 19 °F 28 °F 12 °F (2014)
Degree Days  
Heating Degree Days 38    
Moisture  
Dew Point 21 °F    
Average Humidity 80    
Maximum Humidity 93    
Minimum Humidity 63    
Precipitation  
Precipitation 0.01 in - - ()
Sea Level Pressure  
Sea Level Pressure 29.84 in    
Wind  
Wind Speed 4 mph (East)    
Max Wind Speed 18 mph    
Max Gust Speed 26 mph    
Visibility 5 miles    
Events      
Averages and records for this station are not official NWS values.
T = Trace of Precipitation, MM = Missing Value Source: NWS Daily Summary

Daily Weather History Graph

Daily Weather History Graph

Search for Another Location

Airport or City:

Trip Planner

Search our weather history database for the weather conditions in past years. The results will help you decide how hot, cold, wet, or windy it might be!

Date:

Astronomy

Feb. 16, 2013 Rise Set
Actual Time 8:56 AM AKST 6:39 PM AKST
Civil Twilight 8:17 AM AKST 7:18 PM AKST
Nautical Twilight 7:33 AM AKST 8:02 PM AKST
Astronomical Twilight 6:50 AM AKST 8:46 PM AKST
Moon 10:53 AM AKST (2/16) 2:10 AM AKST (2/16)
Length of Visible Light 11h 01m
Length of Day
9h 43m
Waxing Crescent, 41% of the Moon is Illuminated
Feb 16
Waxing Crescent
Feb 17
First Quarter
Feb 25
Full
Mar 4
Last Quarter
Mar 11
New

Hourly Weather History & Observations

Time (AKST) Temp. Windchill Dew Point Humidity Pressure Visibility Wind Dir Wind Speed Gust Speed Precip Events Conditions
12:16 AM 19.4 °F 12.8 °F 8.6 °F 63% 30.11 in 10.0 mi NE 4.6 mph - N/A   Mostly Cloudy
12:36 AM 19.4 °F - 10.4 °F 68% 30.10 in 10.0 mi Calm Calm - N/A   Overcast
12:56 AM 19.4 °F - 10.4 °F 68% 30.11 in 10.0 mi Calm Calm - N/A   Mostly Cloudy
1:16 AM 19.4 °F 14.3 °F 10.4 °F 68% 30.10 in 10.0 mi South 3.5 mph - N/A   Mostly Cloudy
1:36 AM 19.4 °F 12.8 °F 10.4 °F 68% 30.09 in 10.0 mi SE 4.6 mph - N/A   Overcast
1:56 AM 19.4 °F 14.3 °F 10.4 °F 68% 30.09 in 10.0 mi SSE 3.5 mph - N/A   Overcast
2:16 AM 19.4 °F 12.8 °F 10.4 °F 68% 30.08 in 10.0 mi ESE 4.6 mph - N/A   Overcast
2:36 AM 19.4 °F - 12.2 °F 74% 30.07 in 5.0 mi Calm Calm - N/A   Overcast
2:56 AM 19.4 °F 12.8 °F 10.4 °F 68% 30.05 in 10.0 mi SE 4.6 mph - N/A   Overcast
3:16 AM 19.4 °F - 12.2 °F 74% 30.04 in 10.0 mi Calm Calm - N/A   Overcast
3:36 AM 19.4 °F 14.3 °F 12.2 °F 74% 30.03 in 10.0 mi ESE 3.5 mph - N/A   Overcast
3:56 AM 19.4 °F - 14.0 °F 80% 30.02 in 10.0 mi Calm Calm - N/A   Overcast
4:16 AM 19.4 °F 14.3 °F 14.0 °F 80% 30.00 in 10.0 mi NE 3.5 mph - N/A   Overcast
4:36 AM 21.2 °F 16.4 °F 14.0 °F 74% 29.99 in 10.0 mi North 3.5 mph - N/A   Overcast
4:56 AM 21.2 °F - 15.8 °F 80% 29.97 in 10.0 mi Calm Calm - N/A   Overcast
5:16 AM 24.8 °F 20.5 °F 19.4 °F 80% 29.95 in 4.0 mi East 3.5 mph - N/A   Overcast
5:36 AM 24.8 °F 20.5 °F 19.4 °F 80% 29.93 in 3.0 mi East 3.5 mph - N/A   Overcast
5:56 AM 24.8 °F - 19.4 °F 80% 29.91 in 1.8 mi Calm Calm - N/A   Overcast
6:16 AM 24.8 °F 19.1 °F 21.2 °F 86% 29.89 in 1.2 mi ENE 4.6 mph - N/A   Overcast
6:36 AM 24.8 °F 19.1 °F 21.2 °F 86% 29.87 in 1.2 mi North 4.6 mph - N/A   Overcast
6:56 AM 26.6 °F 21.2 °F 23.0 °F 86% 29.85 in 1.0 mi East 4.6 mph - N/A   Overcast
7:16 AM 28.4 °F 21.2 °F 24.8 °F 86% 29.83 in 1.5 mi East 6.9 mph - N/A   Overcast
7:36 AM 30.2 °F 20.2 °F 26.6 °F 86% 29.80 in 1.8 mi ENE 12.7 mph 19.6 mph N/A   Overcast
7:56 AM 30.2 °F 18.9 °F 26.6 °F 86% 29.79 in 1.2 mi ENE 16.1 mph 25.3 mph N/A   Overcast
8:16 AM 30.2 °F 18.9 °F 26.6 °F 86% 29.77 in 1.0 mi ENE 16.1 mph 23.0 mph N/A   Overcast
8:36 AM 32.0 °F 20.5 °F 28.4 °F 87% 29.75 in 1.0 mi ENE 18.4 mph 26.5 mph N/A   Overcast
8:56 AM 32.0 °F 20.5 °F 28.4 °F 87% 29.74 in 0.8 mi ENE 18.4 mph 24.2 mph N/A   Overcast
9:16 AM 32.0 °F 24.2 °F 28.4 °F 87% 29.72 in 0.2 mi East 9.2 mph 18.4 mph N/A   Overcast
9:36 AM 33.8 °F 25.3 °F 28.4 °F 81% 29.71 in 0.5 mi ENE 11.5 mph 18.4 mph N/A   Overcast
5:56 PM 35.6 °F - 30.2 °F 81% 29.47 in 4.0 mi Calm Calm - N/A   Overcast
6:16 PM 33.8 °F - 30.2 °F 87% 29.47 in 3.0 mi Calm Calm - N/A   Overcast
6:36 PM 33.8 °F - 30.2 °F 87% 29.46 in 3.0 mi Calm Calm - N/A   Overcast
6:56 PM 33.8 °F - 30.2 °F 87% 29.47 in 1.5 mi Calm Calm - N/A   Overcast
7:16 PM 33.8 °F - 30.2 °F 87% 29.47 in 1.2 mi Calm Calm - N/A   Overcast
7:36 PM 33.8 °F - 32.0 °F 93% 29.47 in 1.0 mi Calm Calm - N/A   Overcast
7:56 PM 33.8 °F - 32.0 °F 93% 29.47 in 0.5 mi Calm Calm - N/A   Overcast
8:16 PM 33.8 °F - 30.2 °F 87% 29.47 in 0.8 mi Calm Calm - 0.01 in   Overcast